Fort Knox, KY

8:28 AM EST on February 24, 2017 (GMT -0500)
Godman Army Air Field

Weather History for KFTK - November, 2013

Change the Weather History Date:

Thursday, November 7, 2013

  Actual Average Record
Temperature  
Mean Temperature 42 °F -  
Max Temperature 50 °F 56 °F 72 °F (2016)
Min Temperature 35 °F 38 °F 24 °F (1998)
Degree Days  
Heating Degree Days 22    
Moisture  
Dew Point 30 °F    
Average Humidity 67    
Maximum Humidity 95    
Minimum Humidity 37    
Precipitation  
Precipitation 0.00 in - - ()
Sea Level Pressure  
Sea Level Pressure 30.29 in    
Wind  
Wind Speed 7 mph (WNW)    
Max Wind Speed 10 mph    
Max Gust Speed 17 mph    
Visibility 10 miles    
Events      
Averages and records for this station are not official NWS values.
T = Trace of Precipitation, MM = Missing Value Source: NWS Daily Summary

Daily Weather History Graph

Daily Weather History Graph

Search for Another Location

Airport or City:

Trip Planner

Search our weather history database for the weather conditions in past years. The results will help you decide how hot, cold, wet, or windy it might be!

Date:

Astronomy

Nov. 07, 2013 Rise Set
Actual Time 7:16 AM EST 5:38 PM EST
Civil Twilight 6:48 AM EST 6:06 PM EST
Nautical Twilight 6:17 AM EST 6:37 PM EST
Astronomical Twilight 5:46 AM EST 7:08 PM EST
Moon 11:23 AM EST (11/7) 9:50 PM EST (11/7)
Length of Visible Light 11h 17m
Length of Day
10h 22m
Waxing Crescent, 22% of the Moon is Illuminated
Nov 7
Waxing Crescent
Nov 10
First Quarter
Nov 17
Full
Nov 25
Last Quarter
Dec 2
New

Hourly Weather History & Observations

Time (EST) Temp. Windchill Dew Point Humidity Pressure Visibility Wind Dir Wind Speed Gust Speed Precip Events Conditions
5:55 AM 38.3 °F 33.2 °F 37.0 °F 95% 30.22 in 10.0 mi WNW 6.9 mph - N/A   Partly Cloudy
6:58 AM 36.7 °F 32.0 °F 35.4 °F 95% 30.24 in 10.0 mi WNW 5.8 mph - N/A   Clear
7:12 AM 35.6 °F 29.9 °F 33.8 °F 93% 30.23 in 6.0 mi WNW 6.9 mph - N/A   Partly Cloudy
7:28 AM 37.4 °F 32.1 °F 35.6 °F 93% 30.24 in 7.0 mi WNW 6.9 mph - N/A   Mostly Cloudy
7:58 AM 38.3 °F 32.5 °F 37.0 °F 95% 30.27 in 10.0 mi NW 8.1 mph - N/A   Scattered Clouds
8:58 AM 39.4 °F 33.8 °F 35.1 °F 84% 30.31 in 10.0 mi NW 8.1 mph - N/A   Partly Cloudy
9:58 AM 41.4 °F 35.2 °F 34.7 °F 77% 30.33 in 10.0 mi NW 10.4 mph - N/A   Partly Cloudy
10:58 AM 44.4 °F - 32.7 °F 64% 30.34 in 10.0 mi North 2.3 mph - N/A   Clear
11:58 AM 46.6 °F - 29.5 °F 51% 30.32 in 10.0 mi North 8.1 mph - N/A   Clear
12:58 PM 48.4 °F - 27.5 °F 44% 30.30 in 10.0 mi Variable 5.8 mph - N/A   Clear
1:58 PM 49.5 °F - 25.5 °F 39% 30.29 in 10.0 mi North 9.2 mph 17.3 mph N/A   Clear
2:58 PM 50.0 °F - 26.4 °F 40% 30.28 in 10.0 mi WSW 8.1 mph - N/A   Clear
3:58 PM 50.0 °F - 24.8 °F 37% 30.27 in 10.0 mi Variable 5.8 mph - N/A   Clear
4:58 PM 48.0 °F - 23.9 °F 39% 30.27 in 10.0 mi West 9.2 mph - N/A   Clear
5:58 PM 42.1 °F 38.4 °F 26.1 °F 53% 30.28 in 10.0 mi West 5.8 mph - N/A   Clear
6:58 PM 38.3 °F - 26.6 °F 63% 30.30 in 10.0 mi West 2.3 mph - N/A   Clear
7:58 PM 36.9 °F 33.1 °F 27.0 °F 67% 30.31 in 10.0 mi West 4.6 mph - N/A   Clear
8:58 PM 39.0 °F 35.7 °F 27.1 °F 62% 30.31 in 10.0 mi SW 4.6 mph - N/A   Clear
9:58 PM 35.6 °F 31.7 °F 28.2 °F 75% 30.31 in 10.0 mi WSW 4.6 mph - N/A   Clear
10:58 PM 36.5 °F 31.8 °F 27.3 °F 69% 30.30 in 10.0 mi WSW 5.8 mph - N/A   Clear
11:58 PM 35.6 °F 31.7 °F 27.7 °F 73% 30.31 in 10.0 mi West 4.6 mph - N/A   Clear